User: anonymous   Login
Location: Caltech
(34.1382°N, 118.1253°W)
Time: 08:15:47
(UTC-07:00)
Language:

SEDSat Delta rocket - Orbit

View from above orbital plane
View from above orbital plane
View from above satellite
View from above satellite

Ground track
Ground track

The orbit data is extracted from the following two-line orbital elements,

1 25510U 98061C   18110.67313896 +.00000284 +00000-0 +37379-4 0  9998
2 25510 031.4354 176.5291 0327991 288.1290 214.0930 14.37318618022091
Epoch (UTC): 20 April 2018 16:09:19
Eccentricity: 0.0327991
inclination: 31.4354°
perigee height: 533 km
apogee height: 1002 km
right ascension of ascending node: 176.5291°
argument of perigee: 288.1290°
revolutions per day: 14.37318618
mean anomaly at epoch: 214.0930°
orbit number at epoch: 2209

The dashed part of the orbit path shows where the satellite is in the earth's shadow,  

DLR